Regional Weather Roundup
Issued by NWS

Home | Current Version | Previous Version | Text Only | Print | Product List | Glossary On
Versions: 1 2 3 4 5 6 7 8 9 10 11 12 13 14 15 16 17 18 19 20 21 22 23 24 25 26 27 28 29 30 31 32 33 34 35 36 37 38 39 40 41 42 43 44 45 46 47 48 49 50
000
ASUS43 KTOP 241208
RWRKS

WEATHER ROUNDUP FOR KANSAS
NATIONAL WEATHER SERVICE GOODLAND KS
600 AM CST SAT FEB 24 2018

NOTE:  "FAIR" INDICATES FEW OR NO CLOUDS BELOW 12,000 FEET WITH NO
SIGNIFICANT WEATHER AND/OR OBSTRUCTIONS TO VISIBILITY.

KSZ001>006-013>018-027>032-041>047-241300-
NORTHWEST KANSAS

CITY           SKY/WX    TMP DP  RH WIND       PRES   REMARKS
GOODLAND       CLOUDY    25  24  96 S6        29.83F
6HR MIN TEMP:  24; 6HR MAX TEMP:  25; 6HR PCP: TRACE;

HAYS           CLOUDY    28  28 100 E10       29.92F FOG     WCI  19
HILL CITY      CLOUDY    26  26 100 E7        29.91F FOG
6HR MIN TEMP:  26; 6HR MAX TEMP:  28;

RUSSELL        CLOUDY    31  30  96 NE6       29.93F FOG
6HR MIN TEMP:  31; 6HR MAX TEMP:  32; 6HR PCP: TRACE;

$$

KSZ061>065-074>080-084>089-241300-
SOUTHWEST KANSAS

CITY           SKY/WX    TMP DP  RH WIND       PRES   REMARKS
DODGE CITY     CLOUDY    28  26  92 SE5       29.93R
6HR MIN TEMP:  27; 6HR MAX TEMP:  28;

ELKHART        CLOUDY    31  31 100 CALM      29.87F FOG
GARDEN CITY    CLOUDY    27  26  96 SE13      29.89F WCI  16
6HR MIN TEMP:  27; 6HR MAX TEMP:  28;

GREAT BEND     MIX PCPN  30  29  96 N3        29.96R FOG
LIBERAL        LGT SNOW  28  27  96 NE9       29.90F FOG
PRATT          CLOUDY    30  29  96 N3        29.96S FOG
6HR MIN TEMP:  29; 6HR MAX TEMP:  30;

$$

KSZ066>073-081>083-090>101-241300-
SOUTHEAST KANSAS

CITY           SKY/WX    TMP DP  RH WIND       PRES   REMARKS
CHANUTE        CLOUDY    36  36 100 E6        29.92F FOG
6HR MIN TEMP:  36; 6HR MAX TEMP:  37; 6HR PCP:  0.02;

COFFEYVILLE    CLOUDY    38  38 100 NE3       29.93F FOG
6HR MIN TEMP:  38; 6HR MAX TEMP:  40; 6HR PCP:  0.01;

HUTCHINSON     CLOUDY    32  32 100 NW3       29.95R FOG
6HR MIN TEMP:  31; 6HR MAX TEMP:  32; 6HR PCP: TRACE;

MEDICINE LODGE   N/A     32  32 100 CALM      29.98R
NEWTON           N/A    N/A N/A N/A MISG        N/A
PARSONS        CLOUDY    37  37 100 NE5       29.93F FOG
6HR MIN TEMP:  37; 6HR MAX TEMP:  39; 6HR PCP:  0.01;

WICHITA INTL   DRIZZLE   33  33 100 CALM      29.97R FOG
6HR MIN TEMP:  33; 6HR MAX TEMP:  34; 6HR PCP:  0.01;

WICHITA JABRA  CLOUDY    32  32 100 CALM      29.95R FOG
6HR MIN TEMP:  32; 6HR MAX TEMP:  32; 6HR PCP: TRACE;

WICHITA MCCONL MIX PCPN  34  34 100 CALM      29.97R
WINFIELD       CLOUDY    34  34 100 S3        29.97R FOG
6HR MIN TEMP:  33; 6HR MAX TEMP:  34;

$$

KSZ007>012-019>026-033>040-048>060-102>105-241300-
NORTHEAST KANSAS

CITY           SKY/WX    TMP DP  RH WIND       PRES   REMARKS
CONCORDIA      CLOUDY    27  26  96 N9        29.96F FOG
6HR MIN TEMP:  27; 6HR MAX TEMP:  29; 6HR PCP:  0.02;

EMPORIA        CLOUDY    32  31  96 NE3       29.93R FOG
6HR MIN TEMP:  31; 6HR MAX TEMP:  32; 6HR PCP:  0.02;

LAWRENCE       CLOUDY    35  34  96 E10       29.95F FOG     WCI  27
6HR MIN TEMP:  34; 6HR MAX TEMP:  35; 6HR PCP:  0.12;

MANHATTAN      LGT RAIN  33  32  96 N5        29.98S FOG
6HR MIN TEMP:  33; 6HR MAX TEMP:  34; 6HR PCP: TRACE;

MARYSVILLE     MIX PCPN  30  30 100 NE5       29.99S
OLATHE IND     CLOUDY    34  34 100 E12       29.95F FOG     WCI  25
6HR MIN TEMP:  33; 6HR MAX TEMP:  34; 6HR PCP:  0.09;

OLATHE EXE     CLOUDY    34  34 100 E12       29.94F FOG     WCI  25
6HR MIN TEMP:  32; 6HR MAX TEMP:  33; 6HR PCP:  0.07;

SALINA         CLOUDY    33  32  96 NE8       29.95F FOG
6HR MIN TEMP:  32; 6HR MAX TEMP:  33; 6HR PCP: TRACE;

TOPEKA BILLARD CLOUDY    34  34 100 E8        29.95F FOG
6HR MIN TEMP:  34; 6HR MAX TEMP:  34; 6HR PCP:  0.05;

TOPEKA FORBES  CLOUDY    35  34  96 E9        29.93S FOG
6HR MIN TEMP:  34; 6HR MAX TEMP:  35; 6HR PCP:  0.06;

$$



USA.gov is the U.S. government's official web portal to all federal, state and local government web resources and services.